Temp
2 2 3 3 3 3 3 2 -1 4 6 3 3 2 6 8 8 9 9 9 10 10 11 11 14 14 15 15 15 14 14 13 12 14 16 16 15 14 13 13 14 14 14 15
2 2 2 3 3 3 3 2 1 4 5 -1 4 4 6 7 7 7 8 9 10 11 10 8 12 13 15 15 14 14 14 12 12 13 15 15 14 14 13 13 13 14 14 15
2 2 2 3 3 2 3 2 -1 -0 1 2 3 3 5 5 6 7 7 8 9 9 9 11 10 12 15 13 15 13 13 12 12 11 12 13 12 13 15 14 13 13 13 16
2 2 2 2 2 3 2 2 1 1 -3 2 4 4 5 5 5 7 7 7 7 7 8 10 9 12 12 13 13 12 11 11 12 12 12 13 13 13 14 13 13 13 15 15
2 2 2 3 3 2 2 1 -0 1 2 3 4 4 5 6 5 7 6 7 7 7 7 9 8 11 12 12 11 11 10 10 10 11 13 12 13 14 15 14 13 13 14 15
2 2 3 2 2 2 1 1 1 1 2 2 3 4 5 5 6 7 8 7 5 6 7 8 7 8 9 10 11 11 11 10 9 10 11 11 11 14 14 15 13 14 13 15
2 2 2 2 2 2 2 1 1 1 0 2 3 5 5 5 6 5 7 7 6 8 8 7 7 9 9 10 10 10 10 10 8 9 10 10 14 15 15 14 15 14 14 14
2 2 2 2 2 2 1 2 2 1 0 2 3 4 5 5 5 5 6 7 7 6 7 7 9 7 10 10 10 9 10 9 8 8 9 11 13 15 14 14 14 14 14 14
2 2 2 2 2 2 2 2 1 1 0 1 4 3 4 3 3 3 5 6 5 6 5 6 8 8 10 10 11 10 9 9 8 7 9 9 13 14 16 14 12 13 14 13
2 2 2 2 2 2 2 2 1 1 2 1 3 2 2 3 3 3 5 4 5 5 5 6 6 8 10 9 10 10 8 7 8 8 8 9 12 11 14 12 11 11 13 13
2 2 2 2 2 2 2 2 2 1 1 2 3 4 3 2 2 2 3 4 4 4 5 6 7 6 8 9 10 9 9 8 7 8 9 8 9 11 13 11 10 10 9 8
2 2 2 2 2 2 2 1 1 1 1 1 2 3 4 4 5 4 4 4 4 4 6 6 6 5 3 7 7 8 6 8 8 9 9 8 8 8 9 10 9 9 8 7
2 2 2 2 2 2 2 1 2 1 1 2 1 2 5 5 5 5 4 4 4 3 3 5 5 6 6 5 7 9 9 8 8 9 8 8 7 7 7 7 6 8 7 5
2 2 3 3 3 3 2 1 1 2 1 0 1 4 3 5 5 4 5 5 6 5 4 5 5 5 6 6 7 7 8 8 7 8 8 7 7 6 5 4 3 3 3 4
2 3 3 3 3 3 2 0 1 2 2 2 1 3 6 6 5 4 4 4 5 5 4 5 6 6 6 5 6 6 6 5 6 7 6 6 5 4 4 3 2 2 1 0
3 3 4 4 4 3 0 0 -0 1 3 1 1 2 3 6 5 5 3 3 3 4 5 5 6 6 6 7 6 4 4 4 5 4 3 3 2 1 2 1 -1 -1 -2 -1
4 4 4 3 2 1 1 1 3 2 2 2 2 1 3 5 4 2 2 3 3 3 4 4 5 6 7 5 5 3 3 3 4 3 3 3 3 1 0 -1 -2 -2 -3 -4
3 3 3 2 2 3 2 2 2 2 3 1 1 1 1 4 3 3 2 3 3 4 5 5 5 6 6 4 2 2 2 2 3 2 2 1 1 1 -0 -1 -2 -3 -4 -4
3 2 1 0 3 1 1 2 2 3 3 -0 1 0 -1 2 4 4 3 4 4 4 4 5 5 4 2 1 0 -0 -0 -0 0 2 1 1 -0 -1 -2 -2 -2 -3 -4 -5
1 1 2 -1 2 1 2 2 1 1 1 2 3 3 3 3 3 4 5 4 5 6 5 5 3 -1 -1 -1 -1 -1 -1 -2 -1 1 -0 -1 -2 -2 -3 -4 -4 -4 -4 -6
3 0 1 2 2 3 2 1 2 2 3 2 3 3 4 4 4 5 4 4 5 5 5 6 3 1 -1 -2 -2 -3 -3 -4 -4 -4 -5 -4 -4 -4 -5 -5 -6 -7 -8 -9
3 3 2 2 2 2 2 2 3 3 3 2 3 3 3 4 6 4 4 5 4 6 5 4 1 -2 -2 -3 -3 -4 -5 -5 -5 -5 -5 -5 -6 -6 -7 -7 -9 -10 -11 -11
3 3 3 3 2 3 3 3 4 4 2 4 4 4 2 4 5 4 5 6 3 5 2 -0 -1 -2 -3 -3 -4 -5 -6 -6 -7 -8 -8 -9 -9 -10 -10 -11 -11 -11 -11 -11
3 2 3 2 1 -1 -2 -2 0 2 3 3 3 3 2 3 4 4 5 2 3 2 -1 -1 -4 -3 -4 -5 -6 -7 -9 -9 -9 -10 -10 -11 -11 -12 -11 -11 -10 -11 -12 -12
1 -0 -3 -3 -4 -3 -3 0 2 1 2 2 3 1 0 4 4 3 4 2 -1 -2 -3 -7 -6 -6 -8 -9 -10 -11 -10 -11 -11 -11 -11 -11 -11 -11 -11 -11 -11 -11 -12 -12
-1 -2 -1 -2 -1 -2 -0 0 1 1 1 1 1 -1 0 4 -0 2 -2 0 -2 -7 -10 -8 -7 -10 -12 -11 -9 -10 -10 -10 -10 -10 -11 -11 -11 -11 -11 -11 -11 -11 -11 -12
-2 -3 -6 -6 -5 -4 -1 -1 -1 -1 2 0 2 -2 3 0 -3 -3 -5 -8 -10 -11 -10 -9 -11 -10 -10 -10 -8 -9 -9 -9 -9 -10 -10 -10 -10 -10 -11 -11 -12 -11 -11 -11
Height
797 796 796 796 797 798 798 798 808 790 791 797 796 796 783 776 771 768 766 758 754 749 746 739 723 721 710 707 708 716 716 719 724 712 696 695 703 712 716 715 715 712 712 705
794 794 794 795 796 797 798 800 799 789 790 811 789 787 781 778 776 773 767 759 751 744 748 758 728 720 707 709 711 715 715 722 726 711 701 699 707 709 713 713 713 708 711 703
791 792 792 793 794 796 798 800 806 796 792 792 790 793 782 780 773 768 765 760 755 754 748 741 740 726 713 714 710 713 713 722 726 733 722 721 718 714 706 708 711 709 708 696
788 789 790 791 792 794 797 798 798 797 813 792 788 785 782 777 773 764 763 760 758 760 753 741 746 725 721 717 716 717 722 727 726 725 721 718 714 713 709 711 709 709 697 696
785 786 786 788 790 792 794 796 799 796 794 789 787 783 780 775 779 770 763 760 758 756 755 744 746 727 723 719 721 721 726 734 733 731 716 716 712 704 698 701 705 707 702 695
781 782 783 785 787 790 792 793 792 794 793 791 791 784 778 777 774 763 757 758 762 756 748 743 740 736 731 728 723 725 727 732 739 731 725 723 716 699 694 689 697 696 699 690
776 778 780 782 784 787 789 791 792 795 797 790 787 780 777 776 772 768 758 754 756 744 740 740 735 730 727 726 726 726 731 735 744 743 732 735 699 690 687 686 684 688 690 691
772 774 775 777 779 783 785 788 790 791 794 787 783 779 777 776 771 767 757 752 751 746 745 744 733 739 728 724 723 725 725 734 743 746 742 721 702 690 689 695 691 688 690 689
767 769 770 772 775 778 781 784 787 789 791 786 778 778 777 778 773 768 757 752 747 743 740 742 734 737 726 722 716 718 727 730 739 747 736 737 701 693 683 688 694 691 687 688
762 764 766 768 770 773 776 778 782 786 783 778 776 778 778 773 775 774 762 760 752 747 746 740 742 733 724 726 720 721 735 741 736 737 741 727 701 700 691 703 702 695 685 686
756 758 760 762 765 768 771 773 776 780 780 775 773 771 773 774 774 774 767 763 760 753 751 745 738 746 730 726 720 723 726 733 740 736 733 733 712 700 696 701 702 703 701 705
749 751 753 755 758 762 766 768 771 775 778 774 769 766 765 765 765 768 765 765 766 763 751 748 747 748 753 733 734 723 739 727 725 722 722 723 720 717 706 705 703 713 713 721
742 743 745 747 749 753 758 759 765 773 774 771 768 760 753 757 758 763 766 761 762 765 763 756 751 748 742 748 735 722 718 718 720 718 721 724 725 723 720 722 722 722 725 726
733 734 735 737 740 743 749 751 756 764 769 772 761 751 751 749 750 754 755 757 756 757 759 755 752 750 742 739 733 729 726 721 727 720 723 725 728 731 731 734 735 739 740 741
724 724 723 725 727 730 739 744 750 755 761 762 759 751 743 743 745 748 751 754 756 756 757 754 750 745 742 740 733 734 737 740 732 726 732 729 736 739 739 740 745 748 752 755
715 715 715 716 717 722 732 745 750 754 758 764 764 750 742 741 741 745 748 750 754 754 753 752 746 742 743 733 734 745 745 743 737 740 743 743 746 748 750 750 754 755 757 761
707 709 710 711 715 721 731 738 737 747 758 763 759 755 742 741 742 744 747 748 751 753 754 754 746 740 739 739 739 750 751 747 746 747 747 748 750 754 756 757 762 763 766 768
702 707 710 716 723 729 732 734 737 746 754 759 761 754 750 741 743 744 742 747 749 749 748 747 744 738 736 748 756 758 757 756 754 754 752 754 757 759 760 763 766 767 768 771
705 710 717 724 729 733 736 738 744 748 753 757 754 755 759 742 737 739 742 744 748 745 746 742 742 746 758 761 765 766 765 764 763 760 761 761 762 766 767 768 768 770 776 777
707 716 721 734 734 737 740 748 751 753 749 745 739 735 737 741 737 734 737 740 740 735 735 736 746 769 770 771 771 771 770 769 766 762 764 766 768 770 774 777 777 777 779 782
711 717 724 729 735 738 740 744 744 745 740 738 733 732 730 732 729 725 730 731 729 731 734 730 744 759 771 774 774 775 775 774 773 773 773 772 773 776 778 781 782 785 786 788
708 712 724 732 736 738 740 737 737 735 731 731 728 727 727 726 723 724 726 726 732 722 729 734 758 772 775 776 778 779 779 778 778 777 778 779 780 781 783 786 788 789 791 793
711 716 723 726 732 730 728 727 725 726 727 721 720 722 726 725 724 726 725 722 737 727 744 759 767 772 777 780 781 782 782 783 783 783 783 785 787 788 790 791 793 794 796 797
710 716 720 722 729 733 738 738 730 724 721 721 722 727 730 728 726 728 725 736 733 741 762 763 776 775 780 783 785 787 790 789 790 791 791 791 792 794 796 797 798 798 800 802
714 718 739 738 736 734 732 727 725 726 724 723 725 731 734 727 728 733 730 738 760 763 770 783 780 782 786 789 791 792 794 794 795 796 797 799 800 801 802 802 803 804 805 807
720 728 729 731 730 734 729 728 728 728 725 725 726 738 740 731 744 738 761 751 765 783 789 783 783 788 791 792 793 795 796 797 799 800 802 803 804 805 807 808 809 809 810 811
728 737 740 740 741 741 734 733 732 729 726 735 730 749 730 744 759 762 772 785 789 787 784 784 787 789 792 793 795 797 798 800 802 803 805 806 807 808 809 811 812 812 813 813
Wind_Speed
8 7 8 7 7 6 3 2 2 7 5 1 3 5 3 2 7 5 5 5 7 9 4 7 2 4 3 4 4 4 1 2 3 7 7 11 10 7 4 2 4 2 1 3
8 7 7 7 7 4 2 1 3 3 3 2 2 4 6 9 13 16 5 5 6 5 2 5 9 6 4 4 1 4 3 1 3 7 4 5 3 10 9 6 1 4 3 2
8 8 8 8 7 3 5 1 2 3 2 1 2 4 7 6 7 10 6 9 10 12 6 3 9 5 4 8 2 7 3 2 2 2 3 2 6 11 7 8 2 2 4 0
10 10 8 8 7 4 8 2 3 3 2 1 2 3 5 7 4 6 7 5 3 4 4 3 10 4 2 3 3 3 3 2 1 6 7 8 11 12 11 8 6 4 3 8
10 11 10 10 7 4 6 2 2 1 2 4 3 5 2 8 6 6 6 5 13 5 5 4 10 2 2 2 3 2 2 1 2 4 4 8 10 11 11 13 11 11 16 12
13 13 12 10 8 10 4 4 3 3 2 1 2 2 5 9 12 6 9 9 10 8 11 8 8 6 3 4 2 1 2 3 2 4 6 10 7 0 6 5 11 6 11 8
13 12 12 13 13 13 11 5 3 2 2 3 4 7 9 11 11 12 15 8 7 5 6 9 7 6 5 3 5 3 4 4 3 3 4 3 5 12 8 5 5 9 9 9
16 15 16 15 15 15 18 11 3 2 3 5 6 8 5 9 9 7 10 4 7 13 7 3 4 3 3 5 8 9 7 4 2 2 3 6 11 3 3 8 8 2 6 6
19 18 17 17 16 14 20 17 12 2 2 5 11 5 4 3 4 5 4 5 11 3 2 2 3 3 3 2 4 2 5 3 3 1 2 3 4 8 3 6 6 3 5 6
18 19 19 18 16 15 18 10 21 4 3 4 4 4 4 1 1 3 4 7 6 3 1 1 2 1 2 2 2 3 3 2 8 6 3 6 5 12 7 3 5 10 7 15
20 21 21 21 20 19 19 16 21 12 3 4 4 3 4 2 2 1 3 3 3 3 3 1 0 1 3 1 3 2 5 4 3 3 4 7 11 9 3 4 11 10 15 14
23 23 23 23 23 23 22 11 20 24 2 4 6 14 18 19 10 0 3 1 2 2 3 2 2 2 3 0 2 1 1 1 2 5 2 5 6 6 10 6 11 6 13 12
24 24 24 25 25 27 28 16 23 17 2 6 6 8 28 26 26 16 2 2 4 2 3 2 1 3 1 2 3 2 2 2 1 1 8 8 8 11 15 15 16 13 12 12
25 26 28 29 30 30 30 17 28 19 3 2 6 5 10 12 14 24 23 12 2 4 1 2 2 2 0 2 4 1 3 2 3 1 8 11 9 10 14 14 16 16 15 13
27 26 29 30 29 33 30 25 28 27 6 2 3 13 20 15 14 17 19 17 6 4 1 2 2 2 2 2 1 3 4 3 2 2 5 5 5 10 10 15 13 12 12 13
24 25 20 19 21 21 24 2 17 31 13 2 3 4 5 1 10 12 9 8 3 1 1 2 2 2 2 3 2 5 6 7 1 2 6 8 9 11 11 14 12 12 13 11
16 16 9 10 36 32 5 5 10 31 19 2 2 3 3 3 3 2 2 4 3 3 3 3 3 2 3 1 1 4 8 10 7 5 2 4 9 7 10 13 14 17 17 17
14 17 33 35 29 17 7 8 19 32 8 2 2 4 2 2 2 2 3 3 2 2 2 1 2 2 0 2 4 6 7 5 11 11 12 10 9 10 10 12 10 11 11 11
27 39 36 22 5 4 3 12 29 12 3 3 3 2 3 1 2 2 2 3 2 3 3 3 2 1 2 3 5 5 7 5 5 6 7 9 10 9 9 9 10 11 9 9
45 29 7 2 6 22 24 6 3 1 2 2 3 2 2 3 3 3 4 3 4 4 4 3 2 2 5 6 6 5 6 7 6 0 4 5 6 8 8 9 8 8 9 12
14 3 2 10 25 5 1 3 3 3 3 3 3 6 3 3 2 2 2 3 2 3 3 3 2 2 2 3 6 6 7 8 8 8 8 10 7 7 8 9 11 12 11 10
11 15 18 10 3 2 3 4 3 4 4 2 3 3 3 2 2 2 2 2 1 2 4 2 2 2 6 5 5 6 6 8 9 11 11 12 13 12 12 10 11 12 14 14
14 5 4 4 3 4 4 5 3 3 3 3 2 2 1 2 0 1 1 3 2 2 3 2 1 7 6 6 5 5 7 8 9 11 12 13 13 14 13 13 15 16 17 16
2 3 6 3 3 3 4 3 2 1 1 2 3 2 2 1 3 1 1 2 2 2 2 4 2 6 6 5 5 6 4 6 8 9 11 12 13 14 15 16 15 16 15 12
3 3 2 1 2 1 2 1 1 2 1 1 2 2 2 2 1 0 2 2 1 2 3 2 2 5 5 4 4 5 5 5 7 10 11 12 13 13 14 13 14 14 14 13
3 5 2 1 2 3 2 2 2 3 2 0 1 2 3 2 2 3 1 1 3 3 2 2 4 3 3 4 4 7 11 11 10 11 12 13 12 12 13 12 11 10 11 11
3 2 2 1 3 2 2 2 3 4 2 2 2 4 2 1 3 1 1 3 3 2 2 2 3 5 6 6 10 10 11 11 11 11 11 11 12 12 10 9 8 9 9 9
Wind_Direction
292 303 305 296 310 326 344 81 353 182 18 3 192 230 258 251 287 304 289 284 272 255 334 295 359 301 169 254 182 155 156 84 277 245 238 184 186 196 176 211 173 191 45 267
287 291 297 287 286 308 109 316 266 334 187 169 261 306 283 283 265 269 265 289 308 11 17 315 286 311 348 20 168 165 172 123 319 317 36 43 151 181 195 214 53 231 177 235
277 282 281 278 282 291 176 137 320 321 54 246 160 271 269 254 300 297 301 286 275 286 270 232 292 313 3 325 336 65 73 85 116 241 293 245 314 341 274 212 196 172 219 226
272 275 278 275 270 247 170 185 216 212 277 255 298 264 303 292 297 280 237 289 323 348 269 294 271 276 324 11 19 51 84 123 353 280 278 278 267 254 256 262 247 232 267 226
262 265 268 266 261 220 182 174 178 312 295 297 12 4 286 307 347 321 296 286 329 303 272 264 285 255 314 273 337 82 23 140 41 279 316 330 291 250 244 219 247 274 255 268
259 261 258 253 241 200 193 216 222 111 259 17 353 259 280 298 314 289 320 315 310 287 263 268 260 276 280 272 325 104 108 116 70 279 341 326 297 356 294 211 194 174 245 254
263 261 249 245 243 215 200 191 147 113 267 203 217 263 281 296 308 293 300 304 256 250 286 304 276 253 274 247 258 210 149 150 146 252 346 269 259 318 36 317 208 188 196 215
256 256 252 247 245 223 213 212 172 169 252 230 259 253 292 307 284 271 278 333 312 301 262 244 225 321 334 264 222 209 201 141 182 183 196 291 302 348 63 14 286 214 273 206
248 248 249 247 242 228 214 211 207 192 178 231 233 261 271 294 307 321 281 329 314 261 221 197 163 175 206 263 317 225 120 105 140 146 220 253 243 348 322 44 273 343 276 181
254 252 252 249 243 230 209 211 205 194 263 242 195 207 228 197 302 279 303 313 341 356 328 55 141 221 270 234 240 166 119 148 210 215 240 280 295 324 315 104 298 335 255 160
254 253 249 247 241 230 214 215 204 190 233 270 242 245 186 196 205 224 299 342 8 306 7 320 217 185 247 277 239 190 180 168 193 168 211 254 355 319 228 136 51 30 60 92
261 257 251 245 239 232 217 213 207 205 190 264 280 271 259 246 225 191 299 209 198 299 308 12 310 313 350 307 263 290 26 228 241 184 195 50 360 44 35 57 94 72 75 79
263 258 250 246 240 229 217 200 192 185 229 269 256 252 261 255 243 235 192 255 138 256 245 297 295 272 270 283 261 302 243 151 205 239 138 96 55 59 63 57 56 59 83 91
263 258 256 253 247 239 214 190 180 172 144 226 275 297 268 273 248 219 217 239 221 200 225 274 293 282 138 265 295 336 343 331 9 4 122 100 70 69 82 65 65 59 57 68
269 263 261 257 248 238 210 191 182 181 166 223 275 302 285 261 234 212 214 217 218 254 251 262 265 258 306 219 243 42 356 355 347 28 7 64 64 37 72 90 81 82 82 74
262 258 272 246 244 185 132 116 194 195 194 44 311 286 297 345 201 200 188 181 160 187 317 284 261 239 226 295 76 20 28 348 41 102 50 68 80 70 68 77 84 83 83 87
262 244 215 193 149 143 117 162 171 183 182 183 256 276 268 221 199 132 135 147 182 144 205 225 256 274 189 303 86 24 36 23 55 67 113 74 38 94 81 83 82 84 83 82
188 160 145 138 129 116 84 61 150 156 136 168 229 257 348 10 203 147 181 120 156 216 217 233 245 290 28 98 54 24 13 22 39 51 61 81 84 75 74 80 84 76 70 70
138 134 124 114 108 57 60 120 147 154 148 184 202 203 240 105 235 146 69 134 165 191 206 212 169 49 53 46 83 43 20 24 353 69 71 76 77 75 63 63 64 75 79 79
126 118 89 92 122 120 108 121 121 255 277 238 236 201 227 149 228 169 159 159 206 192 211 128 86 89 84 63 61 44 32 20 351 36 95 85 77 73 66 72 73 80 91 90
137 103 82 125 142 121 106 138 179 178 213 216 228 202 172 198 246 156 193 172 143 189 197 209 126 108 95 85 66 46 46 46 48 61 57 58 84 101 99 83 80 85 88 85
143 117 116 131 131 149 181 184 184 215 227 208 194 211 188 196 163 222 160 162 120 178 143 109 98 121 111 98 68 47 42 50 53 59 71 74 77 81 88 92 89 87 94 102
123 87 130 161 178 183 201 177 195 206 202 198 168 88 74 8 55 53 102 203 199 128 44 90 77 122 113 113 111 81 64 70 71 60 64 70 73 78 88 86 91 102 103 109
114 136 137 209 197 220 190 172 192 55 317 95 90 83 141 248 37 359 146 268 50 81 121 203 145 131 127 127 118 119 87 83 86 77 83 79 78 80 94 101 108 108 99 102
79 75 133 194 250 190 238 240 88 8 305 80 100 69 78 75 88 145 81 39 52 168 199 195 149 117 121 108 102 105 98 92 88 96 96 95 99 95 95 103 107 112 115 115
69 40 76 31 68 351 22 13 65 1 342 303 51 114 67 92 117 61 218 92 224 235 197 161 119 108 106 117 114 107 110 106 104 106 110 111 108 109 113 117 119 133 141 137
55 22 36 77 94 140 10 14 344 322 3 89 49 68 151 66 58 93 44 179 221 178 97 91 116 137 137 127 121 119 122 121 121 123 124 122 127 127 122 120 121 118 126 134